Powrót do katalogu

TITAN 3C TRANSTAGE DEB

LostHEO
NORAD 34169·DEBRIS·🇺🇸 United States

Wystrzelony Dec 21, 1965 z Cape Canaveral Space Force Station

Loading…

Następne Przeloty (najbliższe 24 godziny)

TLE

NieaktualneSource: Space-Track

Epoka: Aug 16, 2024, 06:13 UTC

1 34169U 65108DC  24229.25953953  .00000893  00000-0  10391-2 0  9999
2 34169  28.1398 132.9684 6851554 222.6287 325.3966  2.78770223209016

Śledź TITAN 3C TRANSTAGE DEB w czasie rzeczywistym z AllMySat

Download on the App Store